User: anonymous   Login
Location: Unspecified
(0.0000°N, 0.0000°E)
Time: 23:35:06
(UTC+00:00)
Language:

Terriers - Orbit

View from above orbital plane
View from above orbital plane
View from above satellite
View from above satellite

Ground track
Ground track

The orbit data is extracted from the following two-line orbital elements,

1 25735U 99026A   18142.57847208 +.00001275 +00000-0 +27186-4 0  9998
2 25735 097.2134 310.8629 0003922 189.6913 170.4262 15.46801186058670
Epoch (UTC): 22 May 2018 13:52:59
Eccentricity: 0.0003922
inclination: 97.2134°
perigee height: 423 km
apogee height: 429 km
right ascension of ascending node: 310.8629°
argument of perigee: 189.6913°
revolutions per day: 15.46801186
mean anomaly at epoch: 170.4262°
orbit number at epoch: 5867

The dashed part of the orbit path shows where the satellite is in the earth's shadow,  

DLR